Weather History for Newberry, MI

Change the Weather History Date:

Monday, April 8, 2013

  Actual Average Record
Temperature  
Mean Temperature 32 °F -  
Max Temperature 39 °F 42 °F 63 °F (1929)
Min Temperature 24 °F 24 °F 3 °F (1950)
Degree Days  
Heating Degree Days 34    
Moisture  
Dew Point 29 °F    
Average Humidity 88    
Maximum Humidity 100    
Minimum Humidity 70    
Precipitation  
Precipitation 0.00 in - - ()
Sea Level Pressure  
Sea Level Pressure 29.95 in    
Wind  
Wind Speed 6 mph (ESE)    
Max Wind Speed 17 mph    
Max Gust Speed 21 mph    
Visibility 9 miles    
Events Rain    
Averages and records for this station are not official NWS values.
T = Trace of Precipitation, MM = Missing Value Source: NWS Daily Summary

Daily Weather History Graph

Daily Weather History Graph

Search for Another Location

Airport:

Trip Planner

Search our weather history database for the weather conditions in past years. The results will help you decide how hot, cold, wet, or windy it might be!

Date:

Astronomy

Apr. 08, 2013 Rise Set
Actual Time 7:07 AM EDT 8:20 PM EDT
Civil Twilight 6:36 AM EDT 8:51 PM EDT
Nautical Twilight 5:59 AM EDT 9:28 PM EDT
Astronomical Twilight 5:20 AM EDT 10:08 PM EDT
Moon 6:02 AM EDT (4/8) 6:50 PM EDT (4/8)
Length of Visible Light 14h 14m
Length of Day
13h 12m
Waning Crescent, 3% of the Moon is Illuminated
Apr 8
Waning Crescent
Apr 10
New
Apr 18
First Quarter
Apr 25
Full
May 2
Last Quarter

Hourly Weather History & Observations

Time (EDT) Temp. Windchill Dew Point Humidity Pressure Visibility Wind Dir Wind Speed Gust Speed Precip Events Conditions
12:15 AM 28.4 °F 24.6 °F 26.6 °F 93% 30.03 in 10.0 mi SE 3.5 mph - N/A   Clear
12:34 AM 28.4 °F - 26.6 °F 93% 30.03 in 10.0 mi Calm Calm - N/A   Clear
12:54 AM 26.6 °F 21.2 °F 24.8 °F 93% 30.01 in 10.0 mi ESE 4.6 mph - N/A   Clear
1:15 AM 28.4 °F 23.3 °F 26.6 °F 93% 30.01 in 10.0 mi SE 4.6 mph - N/A   Clear
1:34 AM 28.4 °F 23.3 °F 24.8 °F 86% 30.01 in 10.0 mi SE 4.6 mph - N/A   Clear
1:55 AM 28.4 °F 23.3 °F 26.6 °F 93% 30.00 in 10.0 mi SE 4.6 mph - N/A   Clear
2:15 AM 26.6 °F 22.6 °F 24.8 °F 93% 30.00 in 10.0 mi SE 3.5 mph - N/A   Clear
2:34 AM 26.6 °F 21.2 °F 24.8 °F 93% 30.00 in 10.0 mi ESE 4.6 mph - N/A   Clear
2:55 AM 26.6 °F - 24.8 °F 93% 30.00 in 10.0 mi Calm Calm - N/A   Clear
3:15 AM 26.6 °F 22.6 °F 24.8 °F 93% 29.99 in 10.0 mi ESE 3.5 mph - N/A   Clear
3:34 AM 26.6 °F 21.2 °F 24.8 °F 93% 29.99 in 10.0 mi ESE 4.6 mph - N/A   Clear
3:55 AM 26.6 °F 22.6 °F 24.8 °F 93% 29.99 in 10.0 mi SE 3.5 mph - N/A   Clear
4:14 AM 24.8 °F 17.9 °F 24.8 °F 100% 29.99 in 10.0 mi ESE 5.8 mph - N/A   Clear
4:35 AM 26.6 °F 20.0 °F 24.8 °F 93% 29.99 in 10.0 mi ESE 5.8 mph - N/A   Clear
4:54 AM 26.6 °F 17.5 °F 24.8 °F 93% 29.98 in 10.0 mi East 9.2 mph - N/A   Clear
5:15 AM 26.6 °F 18.2 °F 24.8 °F 93% 29.98 in 10.0 mi ESE 8.1 mph - N/A   Clear
5:35 AM 26.6 °F 19.1 °F 24.8 °F 93% 29.99 in 10.0 mi ESE 6.9 mph - N/A   Clear
5:54 AM 26.6 °F 19.1 °F 24.8 °F 93% 29.99 in 10.0 mi ESE 6.9 mph - N/A   Clear
6:15 AM 26.6 °F 20.0 °F 24.8 °F 93% 29.99 in 10.0 mi SE 5.8 mph - N/A   Clear
6:35 AM 28.4 °F 21.2 °F 26.6 °F 93% 29.99 in 10.0 mi ESE 6.9 mph - N/A   Clear
6:54 AM 26.6 °F 21.2 °F 24.8 °F 93% 29.99 in 10.0 mi ESE 4.6 mph - N/A   Clear
7:15 AM 26.6 °F 20.0 °F 24.8 °F 93% 29.97 in 10.0 mi East 5.8 mph - N/A   Clear
7:34 AM 26.6 °F 18.2 °F 26.6 °F 100% 29.97 in 10.0 mi ESE 8.1 mph - N/A   Clear
7:54 AM 26.6 °F 19.1 °F 24.8 °F 93% 29.97 in 10.0 mi ESE 6.9 mph - N/A   Clear
8:14 AM 28.4 °F 20.4 °F 26.6 °F 93% 29.97 in 10.0 mi ESE 8.1 mph - N/A   Clear
8:34 AM 28.4 °F 19.7 °F 26.6 °F 93% 29.97 in 10.0 mi ESE 9.2 mph - N/A   Clear
8:55 AM 30.2 °F 23.4 °F 28.4 °F 93% 29.97 in 10.0 mi ESE 6.9 mph - N/A   Clear
9:14 AM 30.2 °F 21.9 °F 28.4 °F 93% 29.96 in 10.0 mi ESE 9.2 mph - N/A   Clear
9:34 AM 33.8 °F 26.4 °F 30.2 °F 87% 29.95 in 10.0 mi ESE 9.2 mph - N/A   Clear
9:55 AM 33.8 °F 25.3 °F 30.2 °F 87% 29.94 in 10.0 mi ESE 11.5 mph - N/A   Clear
10:14 AM 35.6 °F 27.1 °F 30.2 °F 81% 29.93 in 10.0 mi ESE 12.7 mph - N/A   Clear
10:35 AM 35.6 °F 28.0 °F 30.2 °F 81% 29.92 in 10.0 mi ESE 10.4 mph - N/A   Scattered Clouds
10:55 AM 35.6 °F 27.5 °F 30.2 °F 81% 29.92 in 10.0 mi ESE 11.5 mph - N/A   Scattered Clouds
11:14 AM 37.4 °F 31.4 °F 30.2 °F 75% 29.93 in 10.0 mi ESE 8.1 mph - N/A   Clear
11:35 AM 37.4 °F 31.4 °F 30.2 °F 75% 29.93 in 10.0 mi ESE 8.1 mph 16.1 mph N/A   Scattered Clouds
11:54 AM 37.4 °F 30.8 °F 30.2 °F 75% 29.92 in 10.0 mi East 9.2 mph 16.1 mph N/A   Scattered Clouds
12:14 PM 37.4 °F 30.3 °F 30.2 °F 75% 29.92 in 10.0 mi East 10.4 mph 16.1 mph N/A   Mostly Cloudy
12:35 PM 37.4 °F 28.9 °F 30.2 °F 75% 29.91 in 10.0 mi ESE 13.8 mph 18.4 mph N/A   Overcast
12:54 PM 37.4 °F 30.8 °F 30.2 °F 75% 29.90 in 10.0 mi East 9.2 mph - N/A   Overcast
1:14 PM 37.4 °F 29.8 °F 30.2 °F 75% 29.89 in 10.0 mi East 11.5 mph 17.3 mph N/A   Scattered Clouds
1:34 PM 37.4 °F 29.8 °F 30.2 °F 75% 29.88 in 10.0 mi East 11.5 mph - N/A   Mostly Cloudy
1:54 PM 37.4 °F 29.8 °F 30.2 °F 75% 29.88 in 10.0 mi East 11.5 mph 17.3 mph N/A   Mostly Cloudy
2:15 PM 37.4 °F 29.3 °F 32.0 °F 81% 29.89 in 10.0 mi ESE 12.7 mph - N/A   Scattered Clouds
2:34 PM 39.2 °F 31.2 °F 32.0 °F 75% 29.89 in 10.0 mi East 13.8 mph 18.4 mph N/A   Mostly Cloudy
2:54 PM 39.2 °F 31.6 °F 32.0 °F 75% 29.88 in 10.0 mi East 12.7 mph - N/A   Mostly Cloudy
3:15 PM 37.4 °F 27.8 °F 32.0 °F 81% 29.87 in 10.0 mi ESE 17.3 mph 20.7 mph N/A   Overcast
3:34 PM 39.2 °F 31.2 °F 30.2 °F 70% 29.86 in 10.0 mi East 13.8 mph 17.3 mph N/A   Overcast
3:55 PM 37.4 °F 29.8 °F 30.2 °F 75% 29.86 in 10.0 mi East 11.5 mph 16.1 mph N/A   Overcast
4:14 PM 37.4 °F 30.3 °F 30.2 °F 75% 29.86 in 10.0 mi East 10.4 mph 16.1 mph N/A   Overcast
4:34 PM 37.4 °F 30.3 °F 30.2 °F 75% 29.86 in 10.0 mi East 10.4 mph - N/A   Overcast
4:55 PM 37.4 °F 30.3 °F 30.2 °F 75% 29.86 in 10.0 mi East 10.4 mph 16.1 mph N/A   Overcast
5:14 PM 39.2 °F 33.0 °F 30.2 °F 70% 29.87 in 10.0 mi East 9.2 mph - N/A   Overcast
5:35 PM 37.4 °F 31.4 °F 30.2 °F 75% 29.88 in 10.0 mi ENE 8.1 mph - N/A   Overcast
5:55 PM 37.4 °F 32.1 °F 32.0 °F 81% 29.88 in 10.0 mi East 6.9 mph - N/A Rain Rain
6:14 PM 37.4 °F 31.4 °F 33.8 °F 87% 29.89 in 7.0 mi ENE 8.1 mph - N/A Rain Light Rain
6:35 PM 35.6 °F 29.9 °F 33.8 °F 93% 29.90 in 10.0 mi East 6.9 mph - N/A Rain Light Rain
6:54 PM 35.6 °F 28.6 °F 33.8 °F 93% 29.90 in 7.0 mi East 9.2 mph - N/A Rain Light Rain
7:14 PM 35.6 °F 29.9 °F 33.8 °F 93% 29.91 in 5.0 mi ESE 6.9 mph - N/A Rain Light Rain
7:35 PM 35.6 °F 30.7 °F 33.8 °F 93% 29.91 in 7.0 mi East 5.8 mph - N/A Rain Rain
7:54 PM 35.6 °F 31.7 °F 33.8 °F 93% 29.91 in 5.0 mi East 4.6 mph - N/A Rain Light Rain
8:15 PM 35.6 °F 31.7 °F 33.8 °F 93% 29.92 in 5.0 mi East 4.6 mph - N/A Rain Light Rain
8:34 PM 33.8 °F 29.6 °F 33.8 °F 100% 29.93 in 7.0 mi ENE 4.6 mph - N/A Rain Rain
8:55 PM 33.8 °F - 33.8 °F 100% 29.94 in 5.0 mi Calm Calm - N/A Rain Light Rain
9:14 PM 33.8 °F 30.8 °F 33.8 °F 100% 29.95 in 7.0 mi NNE 3.5 mph - N/A Rain Light Rain
9:34 PM 33.8 °F - 33.8 °F 100% 29.96 in 7.0 mi Calm Calm - N/A Rain Light Rain
9:55 PM 33.8 °F 30.8 °F 33.8 °F 100% 29.97 in 7.0 mi North 3.5 mph - N/A   Overcast
10:14 PM 33.8 °F - 33.8 °F 100% 29.99 in 7.0 mi Calm Calm - N/A   Overcast
10:34 PM 33.8 °F 30.8 °F 33.8 °F 100% 30.00 in 7.0 mi NW 3.5 mph - N/A   Overcast
10:55 PM 33.8 °F - 33.8 °F 100% 30.00 in 7.0 mi Calm Calm - N/A   Overcast
11:14 PM 33.8 °F 30.8 °F 33.8 °F 100% 30.02 in 7.0 mi NW 3.5 mph - N/A   Overcast
11:35 PM 33.8 °F - 33.8 °F 100% 30.02 in 7.0 mi Calm Calm - N/A   Overcast
11:55 PM 33.8 °F - 33.8 °F 100% 30.02 in 5.0 mi Calm Calm - N/A   Overcast